Location: Grasslands National Park East Block
(49.0708°N, 106.5295°W)
Time: 04:35:38
(UTC-06:00)

Daily predictions for brighter satellites

Satellite Brightness Start Highest point End
(mag) Time Altitude Azimuth Time Altitude Azimuth Time Altitude Azimuth
Cosmos 1805 Rocket 3.5 00:03:11 28° S 00:05:24 82° E 00:09:46 10° NNE
Cosmos 967 Rocket 4.5 00:00:05 10° NW 00:06:30 88° ENE 00:10:51 22° SE
Lacrosse 5 3.4 00:03:19 10° WNW 00:07:08 22° SW 00:08:49 18° SSW
USA 234 3.8 00:04:40 10° NE 00:11:08 63° NNW 00:17:34 10° W
Abrixas rocket 3.7 00:08:58 10° W 00:10:58 22° SW 00:10:58 22° SW
Tsikada Rocket 4.5 00:08:12 24° SSE 00:11:53 50° E 00:17:59 10° NNE
CZ-2C R/B 3.3 00:09:06 25° SSE 00:12:38 79° ENE 00:18:21 10° NNW
Cosmos 1633 Rocket 3.3 00:10:53 31° SSE 00:12:42 55° E 00:16:58 10° NNE
H-2A R/B 4.1 00:14:45 12° SW 00:17:28 19° W 00:20:35 10° NW
Cosmos 2242 Rocket 3.8 00:18:03 10° N 00:22:39 69° E 00:24:47 31° SSE
ARGOS Delta rocket 4.1 00:19:04 10° N 00:24:30 84° WNW 00:27:35 25° SSW
CZ-4B R/B 4.5 00:24:25 10° N 00:29:28 46° WNW 00:33:56 13° SW
CZ-2C R/B 2.6 00:29:09 10° NNE 00:34:32 77° ESE 00:37:20 29° S
Cosmos 968 Rocket 3.8 00:33:50 30° SSE 00:36:10 51° ESE 00:41:17 10° NNE
Cosmos 540 Rocket 4.3 00:33:54 10° NW 00:38:38 37° WSW 00:40:59 24° SSW
Cosmos 1470 Rocket 3.8 00:39:04 33° SSE 00:40:46 56° E 00:45:08 10° NNE
Cosmos 2084 Rocket 3.0 00:42:45 10° NW 00:46:35 86° SW 00:48:00 37° SE
CZ-3B DEB 4.5 00:34:47 10° WNW 00:47:06 71° NNE 00:59:58 10° E
Cosmos 2278 Rocket 3.8 00:45:15 17° SE 00:47:21 21° E 00:51:24 10° NE
Cosmos 1933 3.3 00:46:27 10° N 00:50:35 87° WSW 00:52:04 39° S
Cosmos 1538 Rocket 4.0 00:45:16 10° NNW 00:50:41 85° ENE 00:53:37 28° SSE
Cosmos 1844 4.4 00:49:46 27° SSE 00:52:05 39° ESE 00:57:15 10° NE
SL-24 R/B - RUBIN 2 3.9 00:47:56 10° NW 00:53:40 83° SW 00:56:28 27° SSE
MINOTAUR R/B 4.2 00:54:00 78° SSW 00:54:10 90° ESE 00:57:01 10° NNE
COSMOS 2406 3.2 00:52:28 10° NNW 00:58:08 71° WSW 01:01:04 29° S
Cosmos 1689 Rocket 3.4 00:59:56 28° ESE 01:00:52 36° ENE 01:03:47 10° N
ALOS 2 3.3 01:00:27 29° SSW 01:02:07 43° W 01:06:19 10° NNW
Meteor 2-10 Rocket 3.7 01:00:12 10° NNW 01:05:29 70° W 01:08:12 30° S
CZ-4B R/B 2.0 01:05:33 33° SE 01:06:45 51° ENE 01:10:13 10° N
Cosmos 292 Rocket 3.8 01:02:35 10° NNW 01:07:19 63° WSW 01:09:16 34° S
Cosmos 2263 Rocket 3.5 01:03:15 10° WSW 01:08:23 36° NW 01:13:34 10° NNE
Sich 1 4.2 01:07:15 20° SW 01:09:37 34° WNW 01:13:33 10° N
CZ-4C R/B 2.2 01:08:02 29° SSW 01:10:50 65° SE 01:16:54 10° NE
Cosmos 1315 Rocket 2.9 01:10:29 39° SSE 01:11:42 62° E 01:15:35 10° NNE
Landsat 5 3.7 01:12:56 30° SSE 01:14:54 67° ENE 01:19:02 10° N
Cosmos 2082 Rocket 3.5 01:11:04 10° NNW 01:16:15 36° NE 01:21:24 10° ESE
Cosmos 1400 Rocket 3.2 01:17:13 32° SW 01:18:55 59° WNW 01:23:03 10° N
Meteor 2-3 Rocket 3.9 01:19:12 28° S 01:22:16 68° E 01:28:03 10° NNE
Cosmos 1825 4.2 01:21:09 16° ESE 01:22:40 20° E 01:25:29 10° NE
Cosmos 1782 3.7 01:23:47 10° N 01:27:40 43° ENE 01:29:44 24° SE
Abrixas 4.3 01:29:28 18° E 01:29:28 18° E 01:30:25 10° E
Cosmos 2112 Rocket 4.4 01:24:14 10° NNW 01:29:28 60° ENE 01:33:24 18° SE
Cosmos 773 Rocket 4.1 01:25:31 10° NNW 01:30:42 62° WSW 01:33:10 30° S
Cosmos 1408 4.1 01:34:05 21° SE 01:35:22 26° E 01:38:26 10° NNE
Cosmos 1634 Rocket 4.2 01:31:18 10° NNW 01:37:22 59° W 01:40:47 26° SSW
Cosmos 1933 Rocket 4.4 01:39:00 25° SW 01:41:05 41° WNW 01:45:15 10° N
Cosmos 1777 Rocket 3.9 01:39:02 29° SSW 01:41:45 87° ESE 01:47:01 10° NNE
Cosmos 1680 Rocket 3.5 01:37:04 10° NNW 01:42:22 85° ENE 01:45:44 23° SSE
Cosmos 1844 Rocket 2.8 01:39:30 23° SW 01:43:01 72° WNW 01:48:38 10° NNE
Cosmos 1346 Rocket 2.6 01:39:48 10° NNW 01:43:42 79° W 01:45:06 38° S
CZ-4C R/B 4.0 01:45:09 28° WSW 01:45:37 29° W 01:48:33 10° NW
Aureole 1 Rocket 4.4 01:44:42 10° NNW 01:51:11 83° ENE 01:58:13 14° SSE
Cosmos 1892 3.1 01:51:23 32° SW 01:52:52 53° WNW 01:56:44 10° N
USA 234 4.4 01:47:28 10° ENE 01:53:37 45° N 01:59:45 10° WNW
Cosmos 2221 Rocket 3.6 01:50:09 10° NNW 01:54:37 73° W 01:56:36 32° S
Aureole 3 4.1 01:53:14 27° SSW 01:56:39 84° W 02:01:33 10° N
BREEZE M DEB (TANK) 4.0 01:59:11 18° ESE 01:59:11 18° ESE 02:00:09 10° E
SL-27 R/B 2.7 01:55:33 10° NNW 01:58:47 44° WSW 01:59:18 40° SW
BREEZE-M R/B 4.3 01:50:23 10° W 02:01:33 85° N 02:06:25 10° E
Cosmos 1703 Rocket 4.3 02:02:34 10° NNW 02:06:47 41° W 02:08:36 27° SW
Cosmos 1606 2.6 02:05:35 10° NNW 02:09:29 76° W 02:11:04 34° S
SeaSat 1 2.7 02:05:50 10° SE 02:10:40 71° ENE 02:15:37 10° NNW
CZ-2D R/B 4.4 02:07:32 10° NE 02:10:40 15° E 02:13:49 10° ESE
Cosmos 1340 3.4 02:11:50 10° N 02:15:32 49° ENE 02:18:02 19° SE
H-2A R/B 2.7 02:13:24 10° N 02:17:57 73° WNW 02:20:19 27° SSW
Genesis I 3.2 02:21:01 32° SSW 02:22:40 68° SE 02:26:35 10° NE
SL-08 R/B 4.1 02:18:19 10° SE 02:22:58 50° ENE 02:27:36 10° N
Cosmos 2278 Rocket 2.3 02:27:04 22° SW 02:30:50 73° WNW 02:36:31 10° NNE
Cosmos 1689 Rocket 4.4 02:32:44 14° W 02:32:59 14° W 02:34:41 10° WNW
Okean 1-7 4.1 02:29:24 10° NNW 02:33:14 31° W 02:35:02 22° SW
Cosmos 1869 Rocket 4.4 02:31:28 22° SW 02:33:45 40° WNW 02:37:53 10° N
COSMOS 2487 2.4 02:31:25 10° NNW 02:35:01 86° ENE 02:37:16 21° SSE
Cosmos 1833 Rocket 2.6 02:29:54 10° NNW 02:35:34 73° WSW 02:40:32 13° SSE
NPP 4.3 02:31:33 10° NNE 02:36:47 48° E 02:40:50 16° S
GP-B 3.7 02:34:09 10° N 02:38:32 53° E 02:41:54 16° SSE
Nadezhda 4 Rocket 4.0 02:35:13 21° SSW 02:39:36 79° W 02:45:58 10° N
CZ-4B R/B 3.7 02:39:08 12° W 02:39:45 13° W 02:41:25 10° WNW
Cosmos 2369 Rocket 4.5 02:39:22 10° ESE 02:41:53 13° E 02:44:24 10° ENE
CZ-3B DEB 4.1 02:29:06 10° WNW 02:42:12 80° SW 02:54:03 10° SE
Cosmos 1461 2.8 02:39:59 25° SW 02:42:12 79° NW 02:46:15 10° NE
Cosmos 1812 4.5 02:45:20 10° N 02:48:47 30° ENE 02:52:12 10° SE
Cosmos 2297 3.7 02:46:52 21° SSW 02:50:47 79° ESE 02:56:29 10° NNE
Cosmos 2298 Rocket 4.3 02:48:05 20° S 02:51:46 65° ESE 02:57:02 10° NNE
SL-16 R/B 3.0 02:48:36 10° SSE 02:54:45 65° ENE 03:00:57 10° N
PSLV R/B 4.4 02:53:10 10° N 02:57:16 42° WNW 03:00:08 19° SW
Cosmos 1825 3.1 02:56:02 21° SW 02:58:02 35° WNW 03:01:35 10° N
Cosmos 1862 3.5 02:55:53 23° SSW 02:58:15 60° WNW 03:02:17 10° N
Cosmos 1733 Rocket 3.1 02:56:07 22° SSW 02:58:55 72° WNW 03:03:17 10° N
CZ-4C R/B 3.6 02:54:35 10° W 02:59:47 37° NNW 03:05:45 10° NE
Cosmos 2082 Rocket 2.5 02:55:08 10° NW 03:00:28 46° WSW 03:04:46 15° S
Abrixas 2.0 03:00:16 15° W 03:02:28 80° S 03:05:13 10° E
Cosmos 2150 Rocket 4.2 02:59:34 18° S 03:03:38 72° ESE 03:09:04 10° NNE
ADEOS Rocket 3.8 02:57:34 10° NNE 03:05:17 67° E 03:12:01 12° S
Cosmos 1408 4.1 03:08:32 16° WSW 03:10:29 24° WNW 03:13:28 10° NNW
Cosmos 44 3.1 03:10:25 19° SSW 03:13:45 84° SE 03:18:14 10° NE
Exosat Rocket 4.3 03:10:36 10° NW 03:15:45 46° WSW 03:22:25 10° S
BREEZE-M DEB (TANK) 3.7 03:09:35 10° W 03:17:51 46° SSW 03:21:08 10° SE
Sich 1 Rocket 3.7 03:16:13 15° S 03:20:02 82° E 03:24:39 10° NNE
Okean 3 3.5 03:16:19 10° NNW 03:20:33 66° W 03:24:11 13° S
Helios 1A Rocket 3.8 03:16:55 10° N 03:20:48 39° WNW 03:23:43 16° SW
ATLAS 3B R/B 3.0 03:15:40 15° SSW 03:21:54 71° SE 03:29:00 10° NE
S3M 4.2 03:15:56 10° N 03:22:11 76° E 03:28:18 10° SSE
ATLAS CENTAUR R/B 4.4 03:02:48 13° SW 03:22:14 75° SE 03:28:46 10° ENE
AQUA 3.8 03:17:35 10° NNE 03:22:22 86° WNW 03:26:22 15° SSW
ADEOS 4.3 03:18:27 10° NNE 03:23:32 49° E 03:28:34 10° S
Cosmos 44 Rocket 3.4 03:19:53 16° SW 03:23:47 72° NW 03:28:34 10° NE
Cosmos 1674 Rocket 4.3 03:20:42 10° NNW 03:24:49 37° W 03:27:55 16° SSW
Cosmos 1417 Rocket 4.5 03:22:47 10° NNW 03:28:56 79° W 03:35:04 10° S
Okean 1 4.2 03:27:00 10° N 03:30:59 50° ENE 03:34:56 10° SSE
Cosmos 1633 4.5 03:30:31 10° SSE 03:33:36 27° E 03:36:43 10° NNE
Timation 2 Rocket 4.3 03:28:12 10° NW 03:33:52 43° WSW 03:39:40 10° S
Cosmos 1937 Rocket 3.6 03:30:03 15° SW 03:34:22 66° WNW 03:39:31 10° NNE
Resurs 1-4 Rocket 2.3 03:30:22 10° NNE 03:35:43 73° ESE 03:41:01 10° S
USA 234 4.1 03:29:39 10° E 03:36:01 56° NNE 03:42:23 10° WNW
COBE Rocket 3.9 03:31:41 10° N 03:36:28 78° WNW 03:41:00 12° SSW
Geosat 4.1 03:32:38 10° NNE 03:37:43 79° ESE 03:42:20 12° SSW
Cosmos 1908 Rocket 3.7 03:35:30 14° SSW 03:39:15 62° WNW 03:43:43 10° N
MOS 1 Rocket 4.5 03:35:33 10° NNE 03:40:48 47° E 03:45:49 10° S
Cosmos 1378 Rocket 4.2 03:42:27 10° NNW 03:46:29 39° W 03:50:20 11° SSW
Okean 2 Rocket 3.3 03:43:17 10° S 03:47:41 70° E 03:52:04 10° NNE
Cosmos 1898 Rocket 4.3 03:43:27 11° SW 03:48:07 40° WNW 03:53:06 10° NNE
SeaSat 1 3.8 03:45:36 12° SSW 03:48:38 20° WSW 03:52:16 10° WNW
IRS-1C 4.3 03:44:42 10° N 03:49:59 61° WNW 03:55:09 10° SSW
Cosmos 990 Rocket 4.3 03:45:28 12° SW 03:50:07 58° WNW 03:55:15 10° NNE
Cosmos 1441 Rocket 4.5 03:46:36 10° N 03:50:28 45° ENE 03:54:19 10° SSE
CZ-2D R/B 2.2 03:46:03 10° NNE 03:51:26 87° WNW 03:56:53 10° SSW
ARIANE 5 R/B 2.5 03:50:49 10° NNE 03:55:50 86° WNW 04:00:50 10° SSW
CZ-2D R/B 4.4 03:51:38 10° NNE 03:55:54 49° E 04:00:12 10° S
Cosmos 1125 Rocket 3.9 03:52:35 10° S 03:57:49 62° ESE 04:03:02 10° NNE
Spot 4 Rocket 4.1 03:53:16 10° N 03:58:25 71° WNW 04:03:32 10° SSW
Cosmos 1553 Rocket 4.2 03:54:12 10° NNW 04:00:24 57° W 04:06:39 10° S
UNKNOWN OBJECT B 3.2 03:57:11 10° NNE 04:00:54 58° E 04:04:33 10° S
Cosmos 1782 Rocket 3.8 03:57:39 10° SSW 04:02:05 61° WNW 04:06:33 10° N
BREEZE-M DEB 1.5 04:00:38 10° W 04:03:12 89° SSW 04:05:17 10° E
Cosmos 2026 Rocket 4.5 03:58:15 10° SW 04:04:01 44° WNW 04:09:50 10° N
IRS-1D 3.7 04:00:57 10° N 04:06:03 66° WNW 04:11:02 10° SSW
Cosmos 1346 3.6 04:07:34 10° NNW 04:10:06 33° W 04:12:36 10° SSW
Meteor 1-18 Rocket 4.5 04:06:04 10° NNW 04:11:25 50° W 04:16:45 10° SSW
USA 238 DEB 3.8 04:06:27 10° SW 04:13:27 84° NW 04:20:32 10° NE
USA 238 3.8 04:06:33 10° SW 04:13:33 85° NW 04:20:38 10° NE
Okean O Rocket 3.9 04:10:49 10° NE 04:14:14 22° E 04:17:37 10° SE
Cosmos 1437 4.0 04:12:39 10° NW 04:15:22 24° W 04:18:02 10° SSW
Cosmos 2278 Rocket 4.2 04:12:02 10° W 04:15:57 19° NW 04:19:53 10° N
Cosmos 405 Rocket 3.0 04:15:14 10° NNW 04:19:10 53° W 04:22:59 10° S
Meteor 1-20 Rocket 4.4 04:15:41 10° SSW 04:21:27 66° WNW 04:27:18 10° N
Cosmos 1943 Rocket 3.2 04:17:00 10° S 04:22:20 44° ESE 04:27:39 10° NE
